Parsons, KS

10:40 PM CDT on September 22, 2019 (GMT -0500)
Tri-City

Weather History for KPPF - July, 2019

Change the Weather History Date:

Tuesday, July 16, 2019

  Actual Average Record
Temperature  
Mean Temperature 78 °F -  
Max Temperature 91 °F 91 °F 106 °F (1954)
Min Temperature 66 °F 68 °F 53 °F (2014)
Cooling Degree Days 13    
Growing Degree Days 28 (Base 50)    
Moisture  
Dew Point 70 °F    
Average Humidity 82    
Maximum Humidity 100    
Minimum Humidity 55    
Precipitation  
Precipitation 0.00 in - - ()
Sea Level Pressure  
Sea Level Pressure 29.91 in    
Wind  
Wind Speed 1 mph (South)    
Max Wind Speed 8 mph    
Max Gust Speed -    
Visibility 8 miles    
Events      
Averages and records for this station are not official NWS values.
T = Trace of Precipitation, MM = Missing Value Source: NWS Daily Summary

Daily Weather History Graph

Daily Weather History Graph

Search for Another Location

Airport or City:

Astronomy

Jul. 16, 2019 Rise Set
Actual Time 6:13 AM CDT 8:41 PM CDT
Civil Twilight 5:43 AM CDT 9:12 PM CDT
Nautical Twilight 5:06 AM CDT 9:49 PM CDT
Astronomical Twilight 4:25 AM CDT 10:30 PM CDT
Moon 8:48 PM CDT (7/16) 5:53 AM CDT (7/16)
Length of Visible Light 15h 28m
Length of Day
14h 28m
Full, 100% of the Moon is Illuminated
Jul 16
Full
Jul 16
Full
Jul 24
Last Quarter
Jul 31
New
Aug 7
First Quarter

Hourly Weather History & Observations

Time (CDT) Temp. Heat Index Dew Point Humidity Pressure Visibility Wind Dir Wind Speed Gust Speed Precip Events Conditions
12:52 AM 69.1 °F - 68.0 °F 96% 29.91 in 10.0 mi Calm Calm - N/A   Clear
1:52 AM 69.1 °F - 68.0 °F 96% 29.90 in 10.0 mi Calm Calm - N/A   Clear
2:52 AM 68.0 °F - 66.9 °F 96% 29.89 in 5.0 mi Calm Calm - N/A   Clear
3:52 AM 68.0 °F - 66.9 °F 96% 29.88 in 10.0 mi Calm Calm - N/A   Clear
4:52 AM 66.0 °F - 66.0 °F 100% 29.88 in 10.0 mi Calm Calm - N/A   Clear
5:06 AM 66.0 °F - 66.0 °F 100% 29.90 in 1.8 mi Calm Calm - N/A   Clear
5:13 AM 66.9 °F - 66.0 °F 97% 29.91 in 3.0 mi Calm Calm - N/A   Clear
5:25 AM 66.0 °F - 66.0 °F 100% 29.91 in 1.5 mi Calm Calm - N/A   Clear
5:28 AM 66.0 °F - 66.0 °F 100% 29.91 in 1.0 mi Calm Calm - N/A   Clear
5:34 AM 66.9 °F - 66.0 °F 97% 29.92 in 1.5 mi Calm Calm - N/A   Clear
5:37 AM 66.9 °F - 66.0 °F 97% 29.92 in 3.0 mi Calm Calm - N/A   Clear
5:52 AM 66.0 °F - 64.9 °F 96% 29.89 in 10.0 mi Calm Calm - N/A   Clear
6:52 AM 66.9 °F - 66.0 °F 97% 29.92 in 10.0 mi Calm Calm - N/A   Clear
7:52 AM 73.0 °F - 71.1 °F 93% 29.93 in 10.0 mi Calm Calm - N/A   Clear
8:52 AM 77.0 °F - 71.1 °F 82% 29.95 in 10.0 mi Calm Calm - N/A   Clear
9:52 AM 80.1 °F 83.8 °F 72.0 °F 76% 29.96 in 10.0 mi WSW 3.5 mph - N/A   Clear
10:52 AM 82.9 °F 87.5 °F 71.1 °F 67% 29.96 in 10.0 mi NNW 4.6 mph - N/A   Clear
11:52 AM 84.0 °F 89.0 °F 71.1 °F 65% 29.95 in 10.0 mi Calm Calm - N/A   Clear
12:52 PM 84.9 °F 90.1 °F 71.1 °F 63% 29.94 in 10.0 mi Calm Calm - N/A   Clear
1:52 PM 89.1 °F 96.0 °F 72.0 °F 57% 29.92 in 10.0 mi Calm Calm - N/A   Clear
2:52 PM 89.1 °F 97.0 °F 73.0 °F 59% 29.91 in 10.0 mi South 5.8 mph - N/A   Clear
4:52 PM 90.0 °F 96.9 °F 72.0 °F 55% 29.90 in 10.0 mi SW 8.1 mph - N/A   Clear
5:52 PM 90.0 °F 96.9 °F 72.0 °F 55% 29.89 in 10.0 mi SW 6.9 mph - N/A   Clear
6:52 PM 89.1 °F 98.0 °F 73.9 °F 61% 29.86 in 10.0 mi SSE 4.6 mph - N/A   Clear
7:52 PM 86.0 °F 95.1 °F 75.0 °F 70% 29.86 in 10.0 mi SSE 3.5 mph - N/A   Clear
8:52 PM 82.0 °F 88.6 °F 75.0 °F 79% 29.88 in 10.0 mi ESE 3.5 mph - N/A   Clear
9:52 PM 81.0 °F 86.2 °F 73.9 °F 79% 29.90 in 10.0 mi ESE 3.5 mph - N/A   Clear
11:52 PM 81.0 °F 85.8 °F 73.0 °F 77% 29.91 in 10.0 mi Variable 3.5 mph - N/A   Clear